| time (UTC) | temp F | wind direction | speed knots | gust knots | rain 1hr in | rain 24hr in | rain mn in | humidity % | barometer mb |
| 20260505195117 | 61 | 319 | 0.9 | 3.5 | 0.00 | 0.00 | 0.00 | 76 | 1016.2 |
| 20260505194617 | 61 | 53 | 0.9 | 3.5 | 0.00 | 0.00 | 0.00 | 77 | 1016.2 |
| 20260505194117 | 61 | 303 | 0.9 | 2.6 | 0.00 | 0.00 | 0.00 | 77 | 1016.2 |
| 20260505193617 | 62 | 281 | 0.9 | 2.6 | 0.00 | 0.00 | 0.00 | 76 | 1016.2 |
| 20260505193117 | 62 | 113 | 0.9 | 2.6 | 0.00 | 0.00 | 0.00 | 74 | 1016.2 |
| 20260505192840 | 61 | 97 | 0.9 | 2.6 | 0.00 | 0.00 | 0.00 | 74 | 1016.2 |
| 20260505192117 | 61 | 288 | 0.9 | 2.6 | 0.00 | 0.00 | 0.00 | 74 | 1016.2 |
| 20260505191617 | 61 | 102 | 0.9 | 1.7 | 0.00 | 0.00 | 0.00 | 75 | 1016.2 |
| 20260505191339 | 61 | 171 | 0.9 | 1.7 | 0.00 | 0.00 | 0.00 | 75 | 1016.2 |
| 20260505190619 | 61 | 93 | 0.9 | 1.7 | 0.00 | 0.00 | 0.00 | 76 | 1016.2 |
| 20260505190118 | 60 | 164 | 0.9 | 1.7 | 0.00 | 0.00 | 0.00 | 76 | 1016.2 |
| 20260505185618 | 60 | 166 | 0.9 | 1.7 | 0.00 | 0.00 | 0.00 | 77 | 1016.2 |
| 20260505185119 | 60 | 83 | 0.9 | 0.9 | 0.00 | 0.00 | 0.00 | 78 | 1016.2 |
| 20260505184631 | 60 | 192 | 0.9 | 1.7 | 0.00 | 0.07 | 0.00 | 78 | 1016.2 |
| 20260505184130 | 59 | 347 | 0.9 | 1.7 | 0.00 | 0.07 | 0.00 | 78 | 1016.3 |
| 20260505183630 | 59 | 0 | 0.9 | 1.7 | 0.00 | 0.07 | 0.00 | 78 | 1016.3 |
| 20260505183128 | 59 | 112 | 0.9 | 1.7 | 0.00 | 0.07 | 0.00 | 79 | 1016.3 |
| 20260505182627 | 59 | 352 | 0.9 | 1.7 | 0.00 | 0.07 | 0.00 | 79 | 1016.3 |
| 20260505182127 | 59 | 321 | 0.9 | 1.7 | 0.00 | 0.07 | 0.00 | 78 | 1016.3 |
| 20260505181627 | 59 | 85 | 0.9 | 1.7 | 0.00 | 0.07 | 0.00 | 79 | 1016.3 |
| 20260505181128 | 59 | 99 | 0.9 | 1.7 | 0.00 | 0.07 | 0.00 | 80 | 1016.2 |
| 20260505180849 | 59 | 25 | 0.9 | 2.6 | 0.00 | 0.07 | 0.00 | 79 | 1016.2 |
| 20260505180612 | 59 | 21 | 0.9 | 2.6 | 0.00 | 0.07 | 0.00 | 79 | 1016.2 |
| 20260505175625 | 59 | 178 | 0.9 | 1.7 | 0.00 | 0.07 | 0.00 | 79 | 1016.2 |
| 20260505175125 | 59 | 92 | 0.9 | 2.6 | 0.00 | 0.07 | 0.00 | 80 | 1016.2 |
| 20260505174624 | 59 | 0 | 0.9 | 2.6 | 0.00 | 0.07 | 0.00 | 80 | 1016.2 |
| 20260505174124 | 59 | 96 | 0.9 | 1.7 | 0.00 | 0.07 | 0.00 | 79 | 1016.2 |
| 20260505173624 | 59 | 173 | 0.9 | 1.7 | 0.00 | 0.07 | 0.00 | 80 | 1016.2 |
| 20260505173124 | 59 | 225 | 0.9 | 1.7 | 0.00 | 0.07 | 0.00 | 79 | 1016.2 |
| 20260505172624 | 58 | 116 | 0.9 | 1.7 | 0.00 | 0.07 | 0.00 | 81 | 1016.1 |
| 20260505172124 | 58 | 82 | 0.9 | 2.6 | 0.00 | 0.07 | 0.00 | 80 | 1016.1 |
| 20260505171624 | 58 | 103 | 0.9 | 2.6 | 0.00 | 0.07 | 0.00 | 81 | 1016.0 |
| 20260505171356 | 58 | 142 | 0.9 | 2.6 | 0.00 | 0.07 | 0.00 | 80 | 1016.0 |
| 20260505170624 | 58 | 181 | 0.9 | 1.7 | 0.00 | 0.07 | 0.00 | 80 | 1015.9 |
| 20260505170124 | 58 | 87 | 0.9 | 1.7 | 0.00 | 0.07 | 0.00 | 80 | 1015.9 |
| 20260505165624 | 58 | 99 | 0.9 | 1.7 | 0.00 | 0.07 | 0.00 | 80 | 1015.9 |
| 20260505165121 | 58 | 135 | 0.9 | 1.7 | 0.00 | 0.07 | 0.00 | 80 | 1015.9 |
| 20260505164620 | 58 | 175 | 0.9 | 1.7 | 0.00 | 0.07 | 0.00 | 80 | 1015.8 |
| 20260505164120 | 58 | 123 | 0.9 | 1.7 | 0.00 | 0.07 | 0.00 | 81 | 1015.9 |
| 20260505163624 | 58 | 71 | 0.9 | 1.7 | 0.00 | 0.07 | 0.00 | 82 | 1015.8 |
| 20260505163121 | 58 | 356 | 0.9 | 1.7 | 0.00 | 0.07 | 0.00 | 82 | 1015.8 |
| 20260505162622 | 58 | 87 | 0.9 | 2.6 | 0.00 | 0.07 | 0.00 | 81 | 1015.7 |
| 20260505162123 | 57 | 233 | 0.9 | 2.6 | 0.00 | 0.07 | 0.00 | 82 | 1015.8 |
| 20260505161842 | 57 | 82 | 0.9 | 1.7 | 0.00 | 0.07 | 0.00 | 83 | 1015.7 |
| 20260505161342 | 57 | 167 | 0.9 | 2.6 | 0.00 | 0.07 | 0.00 | 84 | 1015.7 |
| 20260505160844 | 57 | 191 | 0.9 | 2.6 | 0.00 | 0.07 | 0.00 | 84 | 1015.7 |
| 20260505160123 | 56 | 122 | 0.9 | 1.7 | 0.00 | 0.07 | 0.00 | 85 | 1015.7 |
| 20260505153114 | 56 | 0 | 0.9 | 2.6 | 0.00 | 0.07 | 0.00 | 87 | 1015.7 |
| 20260505152614 | 56 | 124 | 0.9 | 2.6 | 0.00 | 0.07 | 0.00 | 87 | 1015.6 |
| 20260505152114 | 56 | 221 | 0.9 | 1.7 | 0.00 | 0.07 | 0.00 | 87 | 1015.6 |
| 20260505151614 | 56 | 61 | 0.9 | 1.7 | 0.00 | 0.07 | 0.00 | 87 | 1015.6 |
| 20260505151114 | 56 | 193 | 0.9 | 1.7 | 0.00 | 0.07 | 0.00 | 87 | 1015.6 |
| 20260505150614 | 55 | 162 | 0.9 | 1.7 | 0.00 | 0.07 | 0.00 | 87 | 1015.6 |
| 20260505150114 | 55 | 126 | 0.9 | 1.7 | 0.00 | 0.07 | 0.00 | 87 | 1015.5 |
| 20260505140608 | 55 | 121 | 0.9 | 1.7 | 0.00 | 0.07 | 0.00 | 89 | 1015.0 |
| 20260505140108 | 55 | 173 | 0.9 | 1.7 | 0.00 | 0.07 | 0.00 | 88 | 1015.0 |
| 20260505124600 | 55 | 90 | 0.9 | 1.7 | 0.00 | 0.07 | 0.00 | 87 | 1014.6 |
| 20260505124318 | 55 | 160 | 0.9 | 1.7 | 0.00 | 0.07 | 0.00 | 87 | 1014.6 |
| 20260505123600 | 55 | 0 | 0.9 | 1.7 | 0.00 | 0.07 | 0.00 | 87 | 1014.5 |
| 20260505123315 | 55 | 140 | 0.9 | 1.7 | 0.00 | 0.07 | 0.00 | 87 | 1014.5 |
| 20260505122557 | 55 | 183 | 0.9 | 0.9 | 0.00 | 0.07 | 0.00 | 87 | 1014.6 |
| 20260505122538 | 55 | 157 | 0.9 | 1.7 | 0.00 | 0.07 | 0.00 | 87 | 1014.6 |
| 20260505121817 | 55 | 89 | 0.9 | 1.7 | 0.00 | 0.07 | 0.00 | 87 | 1014.5 |
| 20260505121057 | 55 | 176 | 0.9 | 2.6 | 0.00 | 0.07 | 0.00 | 87 | 1014.5 |
| 20260505120833 | 55 | 0 | 0.9 | 2.6 | 0.00 | 0.07 | 0.00 | 87 | 1014.5 |
| 20260505120320 | 55 | 218 | 0.0 | 1.7 | 0.00 | 0.07 | 0.00 | 87 | 1014.5 |
| 20260505115557 | 55 | 161 | 0.0 | 0.9 | 0.00 | 0.07 | 0.00 | 87 | 1014.5 |
| 20260505115057 | 55 | 0 | 0.9 | 1.7 | 0.00 | 0.07 | 0.00 | 87 | 1014.5 |
| 20260505114555 | 55 | 178 | 0.9 | 1.7 | 0.00 | 0.07 | 0.00 | 87 | 1014.5 |
| 20260505114054 | 55 | 173 | 0.0 | 1.7 | 0.00 | 0.07 | 0.00 | 87 | 1014.5 |
| 20260505113554 | 55 | 126 | 0.0 | 1.7 | 0.00 | 0.07 | 0.00 | 87 | 1014.5 |
| 20260505113054 | 55 | 78 | 0.9 | 1.7 | 0.00 | 0.07 | 0.00 | 86 | 1014.4 |
| 20260505112554 | 55 | 149 | 0.9 | 1.7 | 0.00 | 0.07 | 0.00 | 86 | 1014.5 |
| 20260505112053 | 55 | 80 | 0.9 | 1.7 | 0.00 | 0.07 | 0.00 | 86 | 1014.5 |
| 20260505111554 | 55 | 147 | 0.9 | 1.7 | 0.00 | 0.07 | 0.00 | 86 | 1014.4 |
| 20260505111053 | 55 | 110 | 0.9 | 1.7 | 0.00 | 0.07 | 0.00 | 87 | 1014.4 |
| 20260505110554 | 55 | 183 | 0.9 | 1.7 | 0.00 | 0.07 | 0.00 | 87 | 1014.4 |
| 20260505102049 | 55 | 104 | 0.9 | 1.7 | 0.00 | 0.07 | 0.00 | 85 | 1014.0 |
| 20260505101548 | 55 | 0 | 0.9 | 1.7 | 0.00 | 0.07 | 0.00 | 85 | 1013.9 |
| 20260505101049 | 55 | 72 | 0.9 | 1.7 | 0.00 | 0.07 | 0.00 | 86 | 1014.0 |
| 20260505100549 | 55 | 149 | 0.9 | 1.7 | 0.00 | 0.07 | 0.00 | 85 | 1014.0 |
| 20260505100313 | 55 | 112 | 0.9 | 1.7 | 0.00 | 0.07 | 0.00 | 85 | 1014.0 |
| 20260505095545 | 55 | 98 | 0.0 | 1.7 | 0.00 | 0.07 | 0.00 | 85 | 1014.0 |
| 20260505095043 | 55 | 68 | 0.0 | 1.7 | 0.00 | 0.07 | 0.00 | 85 | 1014.0 |
| 20260505094539 | 56 | 90 | 0.9 | 1.7 | 0.00 | 0.07 | 0.00 | 85 | 1014.0 |
| 20260505094039 | 56 | 145 | 0.9 | 1.7 | 0.00 | 0.07 | 0.00 | 84 | 1013.9 |
| 20260505093539 | 56 | 181 | 0.9 | 1.7 | 0.00 | 0.07 | 0.00 | 83 | 1013.9 |
| 20260505093316 | 56 | 62 | 0.9 | 1.7 | 0.00 | 0.07 | 0.00 | 83 | 1013.8 |
| 20260505092539 | 56 | 95 | 0.9 | 1.7 | 0.00 | 0.07 | 0.00 | 83 | 1013.8 |
| 20260505092300 | 56 | 133 | 0.9 | 1.7 | 0.00 | 0.07 | 0.00 | 83 | 1013.8 |
| 20260505091539 | 56 | 189 | 0.9 | 1.7 | 0.00 | 0.07 | 0.00 | 83 | 1013.7 |
| 20260505091040 | 57 | 155 | 0.9 | 1.7 | 0.00 | 0.07 | 0.00 | 83 | 1013.7 |
| 20260505090540 | 57 | 75 | 0.9 | 1.7 | 0.00 | 0.07 | 0.00 | 83 | 1013.6 |
| 20260505090259 | 57 | 73 | 0.9 | 1.7 | 0.00 | 0.07 | 0.00 | 83 | 1013.5 |
| 20260505085534 | 57 | 175 | 0.9 | 1.7 | 0.00 | 0.07 | 0.00 | 82 | 1013.5 |
| 20260505085034 | 57 | 158 | 0.9 | 1.7 | 0.00 | 0.07 | 0.00 | 82 | 1013.5 |
| 20260505084531 | 57 | 81 | 0.9 | 1.7 | 0.00 | 0.07 | 0.00 | 83 | 1013.6 |
| 20260505084031 | 57 | 0 | 0.9 | 0.9 | 0.00 | 0.07 | 0.00 | 84 | 1013.5 |
| 20260505083528 | 57 | 25 | 0.0 | 0.9 | 0.00 | 0.07 | 0.00 | 85 | 1013.5 |
| 20260505083253 | 57 | 88 | 0.0 | 0.9 | 0.00 | 0.07 | 0.00 | 85 | 1013.5 |
| 20260505082528 | 57 | 0 | 0.9 | 1.7 | 0.00 | 0.07 | 0.00 | 85 | 1013.5 |
| 20260505082029 | 58 | 94 | 0.9 | 1.7 | 0.00 | 0.07 | 0.00 | 84 | 1013.4 |
| 20260505081529 | 58 | 287 | 0.9 | 1.7 | 0.00 | 0.07 | 0.00 | 84 | 1013.4 |
| 20260505081029 | 58 | 23 | 0.9 | 1.7 | 0.00 | 0.07 | 0.00 | 84 | 1013.4 |
| 20260505080526 | 58 | 2 | 0.9 | 1.7 | 0.00 | 0.07 | 0.00 | 83 | 1013.4 |
| 20260505080027 | 58 | 66 | 0.9 | 1.7 | 0.00 | 0.07 | 0.00 | 83 | 1013.3 |
| 20260505075527 | 58 | 84 | 0.9 | 1.7 | 0.00 | 0.07 | 0.00 | 83 | 1013.3 |
| 20260505075027 | 58 | 73 | 0.9 | 1.7 | 0.00 | 0.07 | 0.00 | 83 | 1013.3 |
| 20260505074527 | 59 | 162 | 0.9 | 1.7 | 0.00 | 0.07 | 0.00 | 82 | 1013.3 |
| 20260505074027 | 59 | 111 | 0.9 | 1.7 | 0.00 | 0.07 | 0.00 | 81 | 1013.1 |
| 20260505073524 | 59 | 79 | 0.9 | 1.7 | 0.00 | 0.07 | 0.00 | 80 | 1013.1 |
| 20260505073024 | 59 | 251 | 0.9 | 1.7 | 0.00 | 0.07 | 0.00 | 80 | 1013.0 |
| 20260505072524 | 59 | 80 | 0.9 | 2.6 | 0.00 | 0.07 | 0.00 | 80 | 1012.9 |
| 20260505072021 | 59 | 76 | 0.9 | 2.6 | 0.00 | 0.07 | 0.00 | 79 | 1012.9 |
| 20260505071522 | 59 | 162 | 0.9 | 1.7 | 0.00 | 0.07 | 0.00 | 80 | 1012.8 |
| 20260505071022 | 59 | 257 | 0.9 | 1.7 | 0.00 | 0.07 | 0.00 | 79 | 1012.8 |
| 20260505070746 | 60 | 136 | 0.9 | 1.7 | 0.00 | 0.07 | 0.00 | 79 | 1012.7 |
| 20260505070022 | 60 | 159 | 0.9 | 1.7 | 0.00 | 0.07 | 0.00 | 80 | 1012.7 |
| 20260505065749 | 59 | 25 | 0.0 | 1.7 | 0.00 | 0.07 | 0.07 | 81 | 1012.7 |
| 20260505065022 | 59 | 168 | 0.9 | 1.7 | 0.00 | 0.07 | 0.07 | 82 | 1012.6 |
| 20260505064519 | 59 | 260 | 0.0 | 1.7 | 0.00 | 0.07 | 0.07 | 82 | 1012.5 |
| 20260505064016 | 59 | 93 | 0.0 | 1.7 | 0.00 | 0.07 | 0.07 | 83 | 1012.4 |
| 20260505063516 | 59 | 175 | 0.0 | 1.7 | 0.00 | 0.07 | 0.07 | 83 | 1012.3 |
| 20260505063016 | 60 | 0 | 0.0 | 0.9 | 0.00 | 0.07 | 0.07 | 83 | 1012.3 |
| 20260505062516 | 60 | 0 | 0.0 | 0.9 | 0.00 | 0.07 | 0.07 | 82 | 1012.2 |
| 20260505062456 | 60 | 114 | 0.0 | 1.7 | 0.00 | 0.07 | 0.07 | 81 | 1012.1 |
| 20260505061514 | 60 | 115 | 0.9 | 1.7 | 0.00 | 0.07 | 0.07 | 81 | 1012.0 |
| 20260505061013 | 61 | 161 | 0.9 | 1.7 | 0.00 | 0.07 | 0.07 | 80 | 1012.0 |
| 20260505060514 | 61 | 113 | 0.9 | 1.7 | 0.00 | 0.07 | 0.07 | 79 | 1011.9 |
| 20260505060014 | 61 | 98 | 0.9 | 1.7 | 0.00 | 0.07 | 0.07 | 79 | 1012.0 |
| 20260505055514 | 62 | 131 | 0.9 | 1.7 | 0.00 | 0.07 | 0.07 | 78 | 1012.0 |
| 20260505055229 | 62 | 87 | 0.9 | 1.7 | 0.00 | 0.07 | 0.07 | 77 | 1012.0 |
| 20260505054511 | 62 | 126 | 0.0 | 1.7 | 0.00 | 0.07 | 0.07 | 77 | 1011.9 |
| 20260505054010 | 63 | 349 | 0.9 | 1.7 | 0.00 | 0.07 | 0.07 | 76 | 1011.9 |
| 20260505053737 | 63 | 99 | 0.9 | 1.7 | 0.00 | 0.07 | 0.07 | 76 | 1011.8 |
| 20260505053239 | 64 | 124 | 0.9 | 1.7 | 0.00 | 0.07 | 0.07 | 75 | 1011.8 |
| 20260505052513 | 64 | 89 | 0.9 | 2.6 | 0.00 | 0.07 | 0.07 | 74 | 1011.8 |
| 20260505052234 | 64 | 0 | 0.9 | 2.6 | 0.00 | 0.07 | 0.07 | 74 | 1011.8 |
| 20260505051510 | 64 | 20 | 0.9 | 1.7 | 0.00 | 0.07 | 0.07 | 73 | 1011.7 |
| 20260505051010 | 64 | 31 | 0.9 | 1.7 | 0.00 | 0.07 | 0.07 | 72 | 1011.6 |
| 20260505050510 | 65 | 301 | 0.9 | 1.7 | 0.00 | 0.07 | 0.07 | 72 | 1011.6 |
| 20260505050229 | 65 | 77 | 0.0 | 0.9 | 0.00 | 0.07 | 0.07 | 72 | 1011.6 |
| 20260505041509 | 68 | 329 | 0.0 | 1.7 | 0.00 | 0.07 | 0.07 | 70 | 1011.0 |
| 20260505041009 | 68 | 0 | 0.0 | 1.7 | 0.00 | 0.07 | 0.07 | 70 | 1010.9 |
| 20260505040510 | 68 | 0 | 0.0 | 1.7 | 0.00 | 0.07 | 0.07 | 70 | 1010.8 |
| 20260505040010 | 68 | 351 | 0.0 | 1.7 | 0.00 | 0.07 | 0.07 | 70 | 1010.8 |
| 20260505035509 | 69 | 70 | 0.0 | 1.7 | 0.00 | 0.07 | 0.07 | 71 | 1010.7 |
| 20260505035010 | 69 | 0 | 0.0 | 2.6 | 0.00 | 0.07 | 0.07 | 71 | 1010.6 |
| 20260505034510 | 69 | 0 | 0.9 | 2.6 | 0.00 | 0.07 | 0.07 | 70 | 1010.5 |
| 20260505034007 | 69 | 275 | 0.9 | 1.7 | 0.00 | 0.07 | 0.07 | 70 | 1010.3 |
| 20260505033506 | 69 | 0 | 0.9 | 3.5 | 0.00 | 0.07 | 0.07 | 70 | 1010.2 |
| 20260505033237 | 69 | 339 | 0.9 | 3.5 | 0.00 | 0.07 | 0.07 | 70 | 1010.2 |
| 20260505032732 | 70 | 252 | 0.9 | 2.6 | 0.00 | 0.07 | 0.07 | 70 | 1010.1 |
| 20260505032005 | 70 | 162 | 0.9 | 2.6 | 0.00 | 0.07 | 0.07 | 70 | 1010.0 |
| 20260505031732 | 70 | 0 | 0.0 | 2.6 | 0.00 | 0.07 | 0.07 | 69 | 1010.0 |
| 20260505031004 | 70 | 192 | 0.9 | 2.6 | 0.00 | 0.07 | 0.07 | 69 | 1009.9 |
| 20260505030507 | 70 | 205 | 0.9 | 2.6 | 0.00 | 0.07 | 0.07 | 69 | 1009.9 |
| 20260505030005 | 71 | 265 | 0.9 | 2.6 | 0.00 | 0.07 | 0.07 | 68 | 1009.9 |
| 20260505025504 | 71 | 195 | 0.9 | 3.5 | 0.00 | 0.07 | 0.07 | 68 | 1009.8 |
| 20260505025004 | 71 | 247 | 0.9 | 3.5 | 0.00 | 0.07 | 0.07 | 68 | 1009.8 |
| 20260505024728 | 71 | 286 | 0.9 | 3.5 | 0.00 | 0.07 | 0.07 | 67 | 1009.7 |
| 20260505024004 | 71 | 274 | 0.9 | 3.5 | 0.00 | 0.07 | 0.07 | 67 | 1009.7 |
| 20260505023504 | 71 | 179 | 0.9 | 3.5 | 0.00 | 0.07 | 0.07 | 67 | 1009.7 |
| 20260505023004 | 71 | 236 | 0.9 | 3.5 | 0.00 | 0.07 | 0.07 | 67 | 1009.7 |
| 20260505022504 | 72 | 116 | 0.9 | 3.5 | 0.00 | 0.07 | 0.07 | 66 | 1009.7 |
| 20260505022004 | 72 | 208 | 0.9 | 3.5 | 0.00 | 0.07 | 0.07 | 66 | 1009.7 |
| 20260505021737 | 72 | 185 | 0.9 | 3.5 | 0.00 | 0.07 | 0.07 | 65 | 1009.7 |
| 20260505021004 | 72 | 191 | 0.9 | 4.3 | 0.00 | 0.07 | 0.07 | 65 | 1009.7 |
| 20260505020504 | 73 | 273 | 0.9 | 4.3 | 0.00 | 0.07 | 0.07 | 64 | 1009.7 |
| 20260505020004 | 73 | 289 | 0.9 | 2.6 | 0.00 | 0.07 | 0.07 | 64 | 1009.7 |
| 20260505015504 | 73 | 0 | 0.9 | 2.6 | 0.00 | 0.07 | 0.07 | 64 | 1009.7 |
| 20260505015004 | 73 | 190 | 0.9 | 2.6 | 0.00 | 0.07 | 0.07 | 64 | 1009.7 |
| 20260505014505 | 73 | 265 | 0.9 | 2.6 | 0.00 | 0.07 | 0.07 | 63 | 1009.7 |
| 20260505014001 | 73 | 31 | 0.9 | 3.5 | 0.00 | 0.07 | 0.07 | 63 | 1009.7 |
| 20260505013501 | 74 | 179 | 0.9 | 3.5 | 0.00 | 0.07 | 0.07 | 62 | 1009.8 |
| 20260505013000 | 74 | 248 | 0.9 | 3.5 | 0.00 | 0.07 | 0.07 | 62 | 1009.8 |
| 20260505012500 | 75 | 200 | 0.9 | 3.5 | 0.00 | 0.07 | 0.07 | 60 | 1009.9 |
| 20260505012000 | 75 | 192 | 0.9 | 3.5 | 0.02 | 0.07 | 0.07 | 60 | 1009.9 |
| 20260505011500 | 76 | 154 | 0.9 | 3.5 | 0.05 | 0.07 | 0.07 | 58 | 1010.0 |
| 20260505011001 | 76 | 201 | 0.9 | 2.6 | 0.07 | 0.07 | 0.07 | 58 | 1010.0 |
| 20260505010501 | 75 | 322 | 0.9 | 3.5 | 0.07 | 0.07 | 0.07 | 58 | 1009.9 |
| 20260505010000 | 76 | 264 | 0.9 | 3.5 | 0.07 | 0.07 | 0.07 | 58 | 1010.0 |
| 20260505005501 | 76 | 195 | 0.9 | 4.3 | 0.07 | 0.07 | 0.07 | 57 | 1010.0 |
| 20260505004958 | 75 | 259 | 0.9 | 4.3 | 0.07 | 0.07 | 0.07 | 58 | 1010.1 |
| 20260505004720 | 75 | 177 | 0.9 | 5.2 | 0.07 | 0.07 | 0.07 | 58 | 1010.2 |
| 20260505003958 | 75 | 277 | 0.9 | 5.2 | 0.07 | 0.07 | 0.07 | 59 | 1010.1 |
| 20260505003459 | 75 | 0 | 1.7 | 5.2 | 0.07 | 0.07 | 0.07 | 59 | 1010.2 |
| 20260505003440 | 75 | 184 | 1.7 | 6.1 | 0.07 | 0.07 | 0.07 | 59 | 1010.1 |
| 20260505002455 | 75 | 208 | 1.7 | 6.1 | 0.07 | 0.07 | 0.07 | 59 | 1010.2 |
| 20260505001956 | 75 | 274 | 1.7 | 3.5 | 0.05 | 0.05 | 0.06 | 58 | 1010.2 |
| 20260505001456 | 74 | 192 | 1.7 | 3.5 | 0.02 | 0.02 | 0.02 | 59 | 1010.1 |
| 20260505000956 | 74 | 255 | 0.9 | 3.5 | 0.00 | 0.00 | 0.00 | 59 | 1010.1 |
| 20260505000455 | 74 | 258 | 0.9 | 6.1 | 0.00 | 0.00 | 0.00 | 59 | 1010.2 |
| 20260504235456 | 75 | 286 | 0.9 | 4.3 | 0.00 | 0.00 | 0.00 | 57 | 1010.4 |
| 20260504234956 | 75 | 284 | 0.9 | 3.5 | 0.00 | 0.00 | 0.00 | 57 | 1010.3 |
| 20260504234455 | 74 | 0 | 0.9 | 3.5 | 0.00 | 0.00 | 0.00 | 58 | 1010.3 |
| 20260504233954 | 74 | 101 | 1.7 | 4.3 | 0.00 | 0.00 | 0.00 | 58 | 1010.3 |
| 20260504233453 | 74 | 276 | 1.7 | 5.2 | 0.00 | 0.00 | 0.00 | 58 | 1010.3 |
| 20260504232954 | 74 | 178 | 1.7 | 5.2 | 0.00 | 0.00 | 0.00 | 58 | 1010.4 |
| 20260504232454 | 74 | 266 | 1.7 | 4.3 | 0.00 | 0.00 | 0.00 | 58 | 1010.4 |
| 20260504232225 | 74 | 189 | 1.7 | 4.3 | 0.00 | 0.00 | 0.00 | 58 | 1010.4 |
| 20260504231455 | 74 | 291 | 0.9 | 3.5 | 0.00 | 0.00 | 0.00 | 58 | 1010.5 |
| 20260504230954 | 74 | 248 | 0.9 | 3.5 | 0.00 | 0.00 | 0.00 | 57 | 1010.5 |
| 20260504230453 | 74 | 202 | 1.7 | 5.2 | 0.00 | 0.00 | 0.00 | 57 | 1010.6 |
| 20260504225954 | 74 | 332 | 1.7 | 5.2 | 0.00 | 0.00 | 0.00 | 57 | 1010.6 |
| 20260504225454 | 74 | 209 | 0.9 | 3.5 | 0.00 | 0.00 | 0.00 | 56 | 1010.7 |
| 20260504224954 | 74 | 0 | 0.9 | 2.6 | 0.00 | 0.00 | 0.00 | 55 | 1010.8 |
| 20260504224452 | 74 | 179 | 0.9 | 3.5 | 0.00 | 0.00 | 0.00 | 56 | 1010.8 |
| 20260504223951 | 74 | 0 | 0.9 | 3.5 | 0.00 | 0.00 | 0.00 | 56 | 1010.9 |
| 20260504223448 | 74 | 300 | 0.9 | 2.6 | 0.00 | 0.00 | 0.00 | 56 | 1010.9 |
| 20260504222943 | 73 | 226 | 1.7 | 4.3 | 0.00 | 0.00 | 0.00 | 56 | 1011.0 |
| 20260504222443 | 73 | 190 | 0.9 | 4.3 | 0.00 | 0.00 | 0.00 | 55 | 1011.1 |
| 20260504221944 | 74 | 21 | 0.9 | 4.3 | 0.00 | 0.00 | 0.00 | 54 | 1011.2 |
| 20260504221929 | 74 | 187 | 0.9 | 4.3 | 0.00 | 0.00 | 0.00 | 55 | 1011.2 |
| 20260504220945 | 74 | 231 | 0.9 | 3.5 | 0.00 | 0.00 | 0.00 | 55 | 1011.3 |
| 20260504220444 | 74 | 283 | 1.7 | 3.5 | 0.00 | 0.00 | 0.00 | 55 | 1011.3 |
| 20260504215944 | 74 | 185 | 0.9 | 3.5 | 0.00 | 0.00 | 0.00 | 54 | 1011.4 |
| 20260504215445 | 73 | 240 | 0.9 | 3.5 | 0.00 | 0.00 | 0.00 | 55 | 1011.5 |
| 20260504214944 | 73 | 30 | 0.9 | 4.3 | 0.00 | 0.00 | 0.00 | 55 | 1011.6 |
| 20260504214442 | 73 | 307 | 0.9 | 4.3 | 0.00 | 0.00 | 0.00 | 56 | 1011.6 |
| 20260504213942 | 72 | 226 | 0.9 | 4.3 | 0.00 | 0.00 | 0.00 | 57 | 1011.7 |
| 20260504213442 | 72 | 189 | 1.7 | 4.3 | 0.00 | 0.00 | 0.00 | 58 | 1011.7 |
| 20260504212942 | 72 | 336 | 1.7 | 4.3 | 0.00 | 0.00 | 0.00 | 59 | 1011.7 |
| 20260504212442 | 72 | 308 | 0.9 | 6.1 | 0.00 | 0.00 | 0.00 | 58 | 1011.9 |
| 20260504211942 | 71 | 0 | 0.9 | 6.1 | 0.00 | 0.00 | 0.00 | 59 | 1011.9 |
| 20260504211442 | 71 | 287 | 0.9 | 4.3 | 0.00 | 0.00 | 0.00 | 59 | 1012.0 |
| 20260504211208 | 70 | 188 | 1.7 | 4.3 | 0.00 | 0.00 | 0.00 | 60 | 1012.1 |
| 20260504210442 | 70 | 346 | 1.7 | 4.3 | 0.00 | 0.00 | 0.00 | 61 | 1012.1 |
| 20260504205939 | 70 | 274 | 1.7 | 5.2 | 0.00 | 0.00 | 0.00 | 61 | 1012.2 |
| 20260504205439 | 70 | 33 | 0.9 | 5.2 | 0.00 | 0.00 | 0.00 | 61 | 1012.3 |
| 20260504204940 | 69 | 217 | 1.7 | 5.2 | 0.00 | 0.00 | 0.00 | 62 | 1012.3 |
| 20260504204440 | 69 | 305 | 1.7 | 4.3 | 0.00 | 0.00 | 0.00 | 62 | 1012.4 |
| 20260504203940 | 70 | 276 | 1.7 | 4.3 | 0.00 | 0.00 | 0.00 | 62 | 1012.5 |
| 20260504203439 | 69 | 216 | 0.9 | 3.5 | 0.00 | 0.00 | 0.00 | 61 | 1012.6 |
| 20260504202939 | 69 | 283 | 1.7 | 5.2 | 0.00 | 0.00 | 0.00 | 63 | 1012.6 |
| 20260504202440 | 68 | 19 | 1.7 | 5.2 | 0.00 | 0.00 | 0.00 | 63 | 1012.6 |
| 20260504201940 | 67 | 227 | 0.9 | 3.5 | 0.00 | 0.00 | 0.00 | 64 | 1012.7 |
| 20260504201440 | 67 | 114 | 1.7 | 3.5 | 0.00 | 0.00 | 0.00 | 66 | 1012.7 |
| 20260504200940 | 67 | 164 | 1.7 | 4.3 | 0.00 | 0.00 | 0.00 | 66 | 1012.8 |
| 20260504200440 | 67 | 284 | 0.9 | 4.3 | 0.00 | 0.00 | 0.00 | 65 | 1012.9 |
| 20260504195941 | 67 | 84 | 0.9 | 4.3 | 0.00 | 0.00 | 0.00 | 64 | 1012.9 |
| 20260504195659 | 66 | 220 | 0.9 | 3.5 | 0.00 | 0.00 | 0.00 | 66 | 1013.0 |